Regional Weather Roundup
Issued by NWS

Home | Current Version | Previous Version | Text Only | Print | Product List | Glossary On
Versions: 1 2 3 4 5 6 7 8 9 10 11 12 13 14 15 16 17 18 19 20 21 22 23 24 25 26 27 28
000
ASUS44 KLIX 181113
RWRLA
LOUISIANA WEATHER ROUNDUP
NATIONAL WEATHER SERVICE NEW ORLEANS LA
600 AM CDT WED OCT 18 2017

NOTE: "FAIR" INDICATES FEW OR NO CLOUDS BELOW 12,000 FEET WITH NO
      SIGNIFICANT WEATHER AND/OR OBSTRUCTIONS TO VISIBILITY.
      SKY/WX - SKY CONDITION AND SIGNIFICANT WEATHER.
      TMP - AIR TEMPERATURE.    DP   - DEWPOINT TEMPERATURE.
      RH  - RELATIVE HUMIDITY.  PRES - PRESSURE.
      HX  - HEAT INDEX.         WCI  - WIND CHILL INDEX.

*  THESE STATIONS ARE NOT NWS OR FAA STATIONS AND ARE NOT UNDER
   NWS QUALITY CONTROL.

LAZ040-048-061>063-065-066-069-181200-
SOUTHEAST LOUISIANA

CITY           SKY/WX    TMP DP  RH WIND       PRES   REMARKS
N.O. INTL ARPT CLEAR     66  61  84 NE7       30.15R
N.O. LAKEFRONT CLEAR     67  59  75 NE15      30.16R
N.O. DOWNTOWN* FAIR      65  57  75 NE9       30.17R
RESERVE*       FAIR      63  58  86 NE5       30.16R
SLIDELL        PTCLDY    54  51  90 N6        30.17R
BATON ROUGE    CLEAR     54  51  90 NE3       30.18R
BOOTHVILLE     CLEAR     74  67  78 E6        30.13R
BELLE CHASSE   CLEAR     63  56  77 E8        30.12
BOGALUSA*      FAIR      52  48  89 CALM      30.21R
GALLIANO*      SUNNY     62  59  90 N7        30.14R
NEW ROADS*     FAIR      52  50  94 CALM      30.19R
GONZALES*      FAIR      56  53  88 CALM      30.16S
HAMMOND*       CLEAR     54  50  87 CALM      30.18R
HOUMA*         CLEAR    N/A N/A N/A NE6       30.15R
PORT FOURCHON* SUNNY     70  66  88 N10       30.13R

$$

LAZ041-044-053-054-181200-
SOUTHWEST LOUISIANA

CITY           SKY/WX    TMP DP  RH WIND       PRES   REMARKS
LAKE CHARLES   CLEAR     55  51  86 NE6       30.15R
LAFAYETTE      PTCLDY    55  54  96 NE6       30.17R
PATTERSON      NOT AVBL
SALT POINT       N/A     61  60  97 VRB3      30.13R
NEW IBERIA     CLEAR     56  52  86 N5        30.17R
CHENAULT AIRPK CLEAR     52  50  93 NE5       30.16S

$$

LAZ027-028-181200-
CENTRAL LOUISIANA

CITY           SKY/WX    TMP DP  RH WIND       PRES   REMARKS
FORT POLK      CLEAR     54  50  87 CALM      30.17R
ALEXANDRIA INT CLEAR     47  46  97 CALM      30.17R
ALEXANDRIA     FOG       44  44 100 CALM      30.19R VSB 1

$$

LAZ001-002-181200-
NORTHWEST LOUISIANA

CITY           SKY/WX    TMP DP  RH WIND       PRES   REMARKS
SHREVEPORT     CLEAR     46  44  93 CALM      30.17S
BARKSDALE AFB  CLEAR     45  44  99 CALM      30.18R
DTN SHREVEPORT CLEAR     48  45  89 CALM      30.19R

$$

LAZ014-016-181200-
NORTHEAST LOUISIANA

CITY           SKY/WX    TMP DP  RH WIND       PRES   REMARKS
MONROE         CLEAR     46  45  96 NE3       30.21S
TALLULAH       CLEAR     45  45 100 CALM      30.22R FOG

$$





USA.gov is the U.S. government's official web portal to all federal, state and local government web resources and services.